Date String (YYYY-MM-DD hh:mm:ss) UTC,Instrument flags,Ambient pressure (hPa),Sample flow (lpm),Bypass flow (lpm),Sample temperature (°C),Ambient temperature (°C),ASC tube jacket temperature (°C),LED temperature (°C),Box temperature (°C),Sample RH (%),Span deviation,Mass concentration (μg/m³),Mass concentration (μg/m³),Mass concentration (μg/m³)
DateTimeUTC,F1_M11,P_M11,Q1_M11,Q2_M11,T1_M11,T2_M11,T3_M11,T4_M11,T5_M11,U1_M11,ZSPAN_M11,X0_M11,X2_M11,X1_M11
2021-11-16 03:00:00,,0824.9,5.00,0.00,29.7,28.9,00.0,38.7,31.4,08.8,0000.0,0000.78,0000.39,0000.27
2021-11-16 03:01:00,,0824.9,5.00,0.00,29.7,28.9,00.0,38.7,31.4,08.8,0000.0,0000.76,0000.38,0000.27
2021-11-16 03:02:00,,0824.9,5.00,0.00,29.7,28.9,00.0,38.7,31.4,08.8,0000.0,0000.73,0000.37,0000.28
2021-11-16 03:03:00,,0824.9,4.99,0.00,29.7,28.9,00.0,38.7,31.4,08.8,0000.0,0000.81,0000.40,0000.29
2021-11-16 03:04:00,,0824.9,5.01,0.00,29.7,28.9,00.0,38.7,31.4,08.8,0000.0,0000.91,0000.44,0000.29
2021-11-16 03:05:00,,0824.9,5.00,0.00,29.7,28.9,00.0,38.7,31.4,08.9,0000.0,0000.82,0000.42,0000.29
2021-11-16 03:06:00,,0824.9,5.00,0.00,29.7,28.9,00.0,38.7,31.4,08.9,0000.0,0000.80,0000.42,0000.29
2021-11-16 03:07:00,,0824.9,5.01,0.00,29.8,28.9,00.0,38.7,31.4,08.9,0000.0,0000.73,0000.43,0000.29
2021-11-16 03:08:00,,0824.9,5.00,0.00,29.7,28.9,00.0,38.7,31.5,08.9,0000.0,0000.74,0000.43,0000.29
2021-11-16 03:09:00,,0824.9,5.00,0.00,29.8,28.9,00.0,38.7,31.4,08.9,0000.0,0000.73,0000.43,0000.28
2021-11-16 03:10:00,,0824.9,5.00,0.00,29.8,28.9,00.0,38.7,31.4,08.8,0000.0,0000.76,0000.44,0000.28
2021-11-16 03:11:00,,0824.9,5.00,0.00,29.8,28.9,00.0,38.8,31.4,08.8,0000.0,0000.85,0000.48,0000.29
2021-11-16 03:12:00,,0824.9,4.99,0.00,29.8,28.9,00.0,38.8,31.5,08.9,0000.0,0000.83,0000.47,0000.28
2021-11-16 03:13:00,,0824.8,5.00,0.00,29.8,28.9,00.0,38.8,31.5,08.8,0000.0,0000.80,0000.46,0000.28
2021-11-16 03:14:00,,0824.8,5.00,0.00,29.8,29.0,00.0,38.8,31.5,08.9,0000.0,0000.77,0000.43,0000.28
2021-11-16 03:15:00,,0824.8,4.99,0.00,29.8,29.0,00.0,38.8,31.5,08.9,0000.0,0000.78,0000.41,0000.29
2021-11-16 03:16:00,,0824.7,5.01,0.00,29.9,29.0,00.0,38.8,31.6,08.9,0000.0,0000.82,0000.42,0000.29
2021-11-16 03:17:00,,0824.7,5.00,0.00,29.9,29.1,00.0,38.8,31.6,08.9,0000.0,0000.88,0000.45,0000.29
2021-11-16 03:18:00,,0824.8,4.99,0.00,29.9,29.0,00.0,38.8,31.6,08.9,0000.0,0001.11,0000.45,0000.29
2021-11-16 03:19:00,,0824.7,5.00,0.00,29.9,29.0,00.0,38.8,31.6,08.9,0000.0,0001.11,0000.45,0000.29
2021-11-16 03:20:00,,0824.7,5.00,0.00,29.9,29.0,00.0,38.8,31.6,08.9,0000.0,0001.06,0000.44,0000.30
2021-11-16 03:21:00,,0824.7,4.99,0.00,29.9,29.0,00.0,38.9,31.6,08.9,0000.0,0001.01,0000.42,0000.30
2021-11-16 03:22:00,,0824.6,5.00,0.00,29.9,29.1,00.0,38.9,31.6,08.9,0000.0,0000.94,0000.39,0000.29
2021-11-16 03:23:00,,0824.7,4.99,0.00,30.0,29.1,00.0,38.9,31.6,08.9,0000.0,0000.97,0000.40,0000.29
2021-11-16 03:24:00,,0824.7,5.01,0.00,30.0,29.1,00.0,38.9,31.7,08.9,0000.0,0000.95,0000.39,0000.28
2021-11-16 03:25:00,,0824.6,5.00,0.00,30.0,29.1,00.0,38.9,31.7,08.9,0000.0,0000.90,0000.40,0000.28
2021-11-16 03:26:00,,0824.7,5.00,0.00,30.0,29.1,00.0,38.9,31.7,08.9,0000.0,0000.81,0000.39,0000.27
2021-11-16 03:27:00,,0825.0,5.00,0.00,30.0,29.2,00.0,38.9,31.7,08.9,0000.0,0000.76,0000.37,0000.27
2021-11-16 03:28:00,,0824.4,5.01,0.00,30.0,29.2,00.0,38.9,31.7,08.9,0000.0,0000.68,0000.34,0000.27
2021-11-16 03:29:00,,0824.4,4.99,0.00,30.0,29.2,00.0,39.0,31.7,08.9,0000.0,0000.46,0000.33,0000.27
2021-11-16 03:30:00,,0824.4,5.00,0.00,30.0,29.2,00.0,39.0,31.7,08.9,0000.0,0000.43,0000.32,0000.27
2021-11-16 03:31:00,,0824.4,5.00,0.00,30.0,29.2,00.0,39.0,31.8,08.9,0000.0,0000.45,0000.33,0000.26
2021-11-16 03:32:00,,0824.4,5.02,0.00,30.1,29.2,00.0,39.0,31.8,08.9,0000.0,0000.50,0000.34,0000.26
2021-11-16 03:33:00,,0824.5,4.99,0.00,30.1,29.3,00.0,39.0,31.8,08.9,0000.0,0000.54,0000.36,0000.26
2021-11-16 03:34:00,,0824.4,5.01,0.00,30.1,29.3,00.0,39.0,31.8,08.8,0000.0,0000.53,0000.35,0000.26
2021-11-16 03:35:00,,0824.3,5.00,0.00,30.1,29.3,00.0,39.0,31.8,08.8,0000.0,0000.53,0000.35,0000.27
2021-11-16 03:36:00,,0824.3,5.01,0.00,30.1,29.3,00.0,39.0,31.8,08.8,0000.0,0000.55,0000.35,0000.27
2021-11-16 03:37:00,,0824.3,5.00,0.00,30.1,29.3,00.0,39.0,31.8,08.8,0000.0,0000.55,0000.34,0000.26
2021-11-16 03:38:00,,0824.3,5.00,0.00,30.1,29.3,00.0,39.0,31.8,08.8,0000.0,0000.61,0000.37,0000.26
2021-11-16 03:39:00,,0824.3,5.00,0.00,30.1,29.3,00.0,39.1,31.8,08.8,0000.0,0000.63,0000.37,0000.26
2021-11-16 03:40:00,,0824.3,5.00,0.00,30.1,29.3,00.0,39.1,31.8,08.8,0000.0,0000.64,0000.39,0000.26
2021-11-16 03:41:00,,0824.4,4.99,0.00,30.1,29.3,00.0,39.1,31.8,08.8,0000.0,0000.69,0000.41,0000.26
2021-11-16 03:42:00,,0824.3,5.00,0.00,30.1,29.3,00.0,39.1,31.9,08.8,0000.0,0000.67,0000.41,0000.27
2021-11-16 03:43:00,,0824.3,4.99,0.00,30.1,29.3,00.0,39.1,31.9,08.9,0000.0,0000.63,0000.39,0000.27
2021-11-16 03:44:00,,0824.3,5.00,0.00,30.1,29.3,00.0,39.1,31.8,08.9,0000.0,0000.59,0000.38,0000.27
2021-11-16 03:45:00,,0824.2,5.00,0.00,30.1,29.4,00.0,39.1,31.9,08.9,0000.0,0001.08,0000.39,0000.26
2021-11-16 03:46:00,,0824.2,5.00,0.00,30.1,29.4,00.0,39.1,31.9,08.9,0000.0,0002.12,0000.39,0000.26
2021-11-16 03:47:00,,0824.2,5.00,0.00,30.2,29.4,00.0,39.1,31.9,08.9,0000.0,0002.11,0000.39,0000.26
2021-11-16 03:48:00,,0824.2,5.00,0.00,30.2,29.4,00.0,39.1,31.9,08.9,0000.0,0002.14,0000.40,0000.27
2021-11-16 03:49:00,,0824.2,5.00,0.00,30.2,29.4,00.0,39.1,31.9,08.9,0000.0,0002.09,0000.38,0000.27
2021-11-16 03:50:00,,0824.2,5.01,0.00,30.2,29.4,00.0,39.2,31.9,08.9,0000.0,0002.09,0000.39,0000.27
2021-11-16 03:51:00,,0824.2,5.00,0.00,30.2,29.4,00.0,39.2,31.9,08.9,0000.0,0002.05,0000.37,0000.28
2021-11-16 03:52:00,,0824.2,5.00,0.00,30.2,29.4,00.0,39.2,31.9,09.0,0000.0,0002.00,0000.35,0000.27
2021-11-16 03:53:00,,0824.2,5.00,0.00,30.2,29.4,00.0,39.2,31.9,09.0,0000.0,0002.01,0000.34,0000.26
2021-11-16 03:54:00,,0824.2,5.00,0.00,30.2,29.4,00.0,39.2,31.9,09.0,0000.0,0002.06,0000.36,0000.26
2021-11-16 03:55:00,,0824.2,5.00,0.00,30.2,29.4,00.0,39.2,31.9,09.0,0000.0,0002.11,0000.38,0000.27
2021-11-16 03:56:00,,0824.1,5.00,0.00,30.2,29.4,00.0,39.2,31.9,09.0,0000.0,0001.77,0000.38,0000.27
2021-11-16 03:57:00,,0824.1,5.00,0.00,30.2,29.3,00.0,39.2,31.8,09.0,0000.0,0000.60,0000.38,0000.27
2021-11-16 03:58:00,,0824.1,5.00,0.00,30.2,29.3,00.0,39.2,31.8,09.0,0000.0,0000.58,0000.38,0000.27
2021-11-16 03:59:00,,0824.1,5.00,0.00,30.2,29.3,00.0,39.2,31.8,09.0,0000.0,0000.54,0000.36,0000.26
